This is the latest recevied weather packets stored in our database for station/object IT9CNT. If no packets are shown the sender has not sent any weather packets the latest 10 day(s).
| Time | Temp. | Humidity | Pressure | Rain* | Wind** | Luminosity | Snow |
|---|---|---|---|---|---|---|---|
| 1787729163 | 33.33° C | 63% | 1014.3 hPa | 0 mm | - | - | - |
| 1787729103 | 33.33° C | 63% | 1014.4 hPa | 0 mm | - | - | - |
| 1787729043 | 33.33° C | 64% | 1014.5 hPa | 0 mm | - | - | - |
| 1787728983 | 32.78° C | 65% | 1014.4 hPa | 0 mm | - | - | - |
| 1787728923 | 32.78° C | 69% | 1014.4 hPa | 0 mm | - | - | - |
| 1787728863 | 32.78° C | 69% | 1014.3 hPa | 0 mm | - | - | - |
| 1787728803 | 32.78° C | 69% | 1014.4 hPa | 0 mm | - | - | - |
| 1787728743 | 32.78° C | 70% | 1014.3 hPa | 0 mm | - | - | - |
| 1787728683 | 32.78° C | 70% | 1014.4 hPa | 0 mm | - | - | - |
| 1787728623 | 32.22° C | 71% | 1014.5 hPa | 0 mm | - | - | - |
| 1787728563 | 32.22° C | 71% | 1014.5 hPa | 0 mm | - | - | - |
| 1787728503 | 32.22° C | 71% | 1014.3 hPa | 0 mm | - | - | - |
| 1787728443 | 32.22° C | 72% | 1014.3 hPa | 0 mm | - | - | - |
| 1787728383 | 32.22° C | 72% | 1014.3 hPa | 0 mm | - | - | - |
| 1787728323 | 32.78° C | 71% | 1014.4 hPa | 0 mm | - | - | - |
| 1787728263 | 32.78° C | 71% | 1014.2 hPa | 0 mm | - | - | - |
| 1787728203 | 33.33° C | 69% | 1014.3 hPa | 0 mm | - | - | - |
| 1787728143 | 33.33° C | 69% | 1014.2 hPa | 0 mm | - | - | - |
| 1787728083 | 32.78° C | 69% | 1014.6 hPa | 0 mm | - | - | - |
| 1787728023 | 32.78° C | 69% | 1014.4 hPa | 0 mm | - | - | - |
| 1787727963 | 32.78° C | 68% | 1014.4 hPa | 0 mm | - | - | - |
| 1787727903 | 32.22° C | 68% | 1014.5 hPa | 0 mm | - | - | - |
| 1787727843 | 32.22° C | 68% | 1014.4 hPa | 0 mm | - | - | - |
| 1787727783 | 32.22° C | 71% | 1014.4 hPa | 0 mm | - | - | - |
| 1787727723 | 32.22° C | 71% | 1014.3 hPa | 0 mm | - | - | - |
* Rain latest hour (hover to see other rain measurements)
** Current wind speed in m/s (hover to see current wind gust speed)